PBO Station Position Time Series. Reference Frame : NAM14
Format Version,1.1.0
4-character ID,AC44
Station name,ArcticVly_AK2008
Begin Date, 2008-08-07
End Date, 2019-10-07
Release Date, 2019-10-08
Reference position, 61.2421729697 North Latitude, -149.5671258412 East Longitude, 832.17617 meters elevation,
Date, North (mm), East (mm), Vertical (mm), North Std. Deviation (mm), East Std. Deviation (mm),              Vertical Std. Deviation (mm), Quality,
2008-08-07,0.00, 0.00, 0.00, 2.40, 1.57, 7.51, repro,
2008-08-08,0.92, -0.12, 2.55, 2.41, 1.58, 7.57, repro,
2008-08-09,0.02, -1.23, -1.84, 2.32, 1.56, 7.46, repro,
2008-08-10,-0.23, 0.07, -2.39, 2.30, 1.55, 7.41, repro,
2008-08-11,-0.75, -0.20, -0.31, 2.32, 1.56, 7.46, repro,
2008-08-12,-0.36, -0.17, 2.11, 2.33, 1.59, 7.48, repro,
2008-08-13,-1.33, -0.21, 11.87, 2.34, 1.58, 7.46, repro,
2008-08-14,-1.19, -0.51, 3.12, 2.32, 1.55, 7.46, repro,
2008-08-15,0.48, 0.12, -1.20, 2.34, 1.60, 7.50, repro,
2008-08-16,0.63, -0.16, -4.91, 2.32, 1.54, 7.44, repro,
2008-08-17,-0.14, -0.13, -0.30, 2.34, 1.58, 7.53, repro,
2008-08-18,-0.77, -1.06, 5.23, 2.33, 1.57, 7.47, repro,
2008-08-19,0.28, -1.24, 7.63, 2.35, 1.57, 7.56, repro,
2008-08-20,0.67, -0.90, 1.76, 2.30, 1.54, 7.38, repro,
2008-08-21,0.59, 1.26, 1.58, 2.29, 1.54, 7.34, repro,
2008-08-22,-2.04, -0.01, 2.47, 2.38, 1.59, 7.58, repro,
2008-08-23,-0.94, 0.02, -0.15, 2.32, 1.55, 7.45, repro,
2008-08-24,-1.16, 0.84, 3.41, 2.33, 1.55, 7.42, repro,
2008-08-25,-1.81, -0.36, 10.65, 2.29, 1.53, 7.33, repro,
2008-08-26,-1.46, 0.00, 6.13, 2.31, 1.54, 7.38, repro,
2008-08-27,-1.81, -0.34, 3.77, 2.37, 1.57, 7.57, repro,
2008-08-28,-2.18, -0.51, 3.80, 2.45, 1.64, 7.79, repro,
2008-08-29,-2.41, -0.44, -0.21, 2.37, 1.57, 7.60, repro,
2008-08-30,-0.29, -0.15, -5.57, 2.35, 1.56, 7.47, repro,
2008-08-31,0.97, -0.21, -3.30, 2.35, 1.56, 7.46, repro,
2008-09-01,-1.62, -2.37, 10.28, 2.43, 1.63, 8.28, repro,
2008-09-02,-0.05, -0.51, 1.58, 2.38, 1.57, 7.60, repro,
2008-09-03,0.66, -2.51, -0.42, 2.38, 1.57, 7.65, repro,
2008-09-04,-0.71, -0.89, -2.18, 2.55, 1.68, 8.26, repro,
2008-09-05,-0.84, -1.65, -2.51, 2.40, 1.62, 7.64, repro,
2008-09-06,-1.00, 0.11, -1.04, 2.36, 1.57, 7.52, repro,
2008-09-07,5.44, 0.04, 4.66, 2.42, 1.63, 7.71, repro,
2008-09-08,-1.06, -0.58, 4.73, 2.38, 1.57, 7.60, repro,
2008-09-09,1.55, 0.06, 8.66, 2.41, 1.59, 7.74, repro,
2008-09-10,0.06, -0.94, 3.45, 2.42, 1.60, 7.63, repro,
2008-09-11,-1.05, -1.15, -0.04, 2.42, 1.59, 7.61, repro,
2008-09-12,0.52, -0.57, 8.80, 2.37, 1.59, 7.60, repro,
2008-09-13,1.37, -0.56, 8.18, 2.37, 1.56, 7.53, repro,
2008-09-14,0.44, -1.59, 12.24, 2.38, 1.57, 7.64, repro,
2008-09-15,1.07, -1.40, 3.63, 2.40, 1.59, 7.70, repro,
2008-09-16,-1.07, -1.57, -2.54, 2.34, 1.55, 7.56, repro,
2008-09-17,-0.95, -1.68, -6.04, 2.36, 1.60, 7.94, repro,
2008-09-18,1.05, -0.36, 9.90, 2.32, 1.55, 7.42, repro,
2008-09-19,-0.40, -1.38, 7.25, 2.30, 1.54, 7.42, repro,
2008-09-20,-0.34, -1.63, 4.90, 2.32, 1.54, 7.43, repro,
2008-09-21,0.28, -0.30, -0.03, 2.28, 1.53, 7.30, repro,
2008-09-22,-0.90, -2.27, -6.21, 2.29, 1.54, 7.33, repro,
2008-09-23,0.30, -0.80, -0.98, 2.30, 1.54, 7.37, repro,
2008-09-24,1.88, -1.52, 1.79, 2.29, 1.53, 7.32, repro,
2008-09-25,2.50, -2.03, 5.81, 2.35, 1.58, 7.57, repro,
2008-09-26,0.46, -1.27, 0.80, 2.31, 1.54, 7.40, repro,
2008-09-27,0.02, -1.30, -0.04, 2.30, 1.54, 7.35, repro,
2008-09-28,-0.01, -0.64, 1.66, 2.30, 1.54, 7.45, repro,
2008-09-29,0.62, -1.46, 0.48, 2.32, 1.55, 7.41, repro,
2008-09-30,0.62, -1.85, 3.84, 2.31, 1.54, 7.40, repro,
2008-10-01,1.37, -1.87, 1.31, 2.32, 1.54, 7.43, repro,
2008-10-02,1.46, -0.96, 8.67, 2.32, 1.55, 7.44, repro,
2008-10-03,-0.43, -0.97, 6.71, 2.29, 1.54, 7.33, repro,
2008-10-04,0.01, -1.28, 9.61, 2.30, 1.54, 7.37, repro,
2008-10-05,0.47, -1.21, 11.93, 2.30, 1.53, 7.36, repro,
2008-10-06,1.45, -1.66, 6.64, 2.30, 1.53, 7.37, repro,
2008-10-07,1.98, -1.65, 5.64, 2.31, 1.55, 7.43, repro,
2008-10-08,1.44, -1.26, 1.60, 2.35, 1.56, 7.37, repro,
2008-10-09,2.74, -1.22, -0.02, 2.29, 1.53, 7.28, repro,
2008-10-10,-2.43, -1.40, 14.50, 2.27, 1.53, 7.22, repro,
2008-10-11,0.76, -1.97, 5.58, 2.37, 1.57, 7.41, repro,
2008-10-12,2.22, -0.76, -3.07, 2.28, 1.52, 7.22, repro,
2008-10-13,-0.32, -2.78, 4.02, 2.26, 1.52, 7.17, repro,
2008-10-14,2.52, -2.06, 3.30, 2.27, 1.52, 7.23, repro,
2008-10-15,3.45, -1.92, 6.02, 2.31, 1.55, 7.50, repro,
2008-10-16,2.26, -2.43, -0.71, 2.34, 1.56, 7.59, repro,
2008-10-17,1.42, -1.71, -3.63, 2.28, 1.52, 7.23, repro,
2008-10-18,1.78, -1.18, 2.49, 2.28, 1.52, 7.22, repro,
2008-10-19,1.52, -1.06, 2.82, 2.28, 1.51, 7.22, repro,
2008-10-20,1.29, -1.15, 2.53, 2.28, 1.52, 7.26, repro,
2008-10-21,2.52, -1.42, 0.52, 2.27, 1.53, 7.23, repro,
2008-10-22,1.38, -1.47, 3.79, 2.59, 1.71, 8.11, repro,
2008-10-23,1.89, -1.74, 7.74, 2.28, 1.52, 7.23, repro,
2008-10-24,-0.11, -1.37, 12.01, 2.27, 1.50, 7.19, repro,
2008-10-25,0.18, -1.28, -0.46, 2.28, 1.53, 7.25, repro,
2008-10-26,1.35, -1.09, -3.35, 2.28, 1.52, 7.29, repro,
2008-10-27,2.98, -1.91, -4.33, 2.28, 1.53, 7.26, repro,
2008-10-28,1.95, -1.92, -2.22, 2.36, 1.57, 7.43, repro,
2008-10-29,0.33, -1.69, 0.60, 2.36, 1.56, 7.41, repro,
2008-10-30,-0.00, -1.29, 0.63, 2.27, 1.52, 7.18, repro,
2008-10-31,0.79, -1.80, -3.67, 2.43, 1.63, 7.84, repro,
2008-11-01,0.90, -1.29, 0.56, 2.34, 1.56, 7.49, repro,
2008-11-02,1.14, -1.55, 8.66, 2.31, 1.55, 7.43, repro,
2008-11-03,0.83, -1.62, 5.06, 2.34, 1.55, 7.43, repro,
2008-11-04,-0.06, -0.82, -0.13, 2.30, 1.54, 7.34, repro,
2008-11-05,0.90, -0.49, -1.84, 2.36, 1.55, 7.47, repro,
2008-11-06,1.25, -1.87, 0.04, 2.39, 1.57, 7.63, repro,
2008-11-07,2.11, -1.53, 2.35, 2.36, 1.57, 7.62, repro,
2008-11-08,1.80, -1.71, 0.98, 2.41, 1.60, 7.72, repro,
2008-11-09,-0.01, -0.44, -0.05, 2.44, 1.67, 7.92, repro,
2008-11-10,-0.12, -1.72, 15.97, 2.32, 1.55, 7.49, repro,
2008-11-11,0.37, -0.96, 15.43, 2.48, 1.68, 8.38, repro,
2008-11-12,0.96, -1.37, 10.48, 2.37, 1.58, 7.62, repro,
2008-11-13,1.90, -1.73, 2.90, 2.36, 1.57, 7.59, repro,
2008-11-14,-0.64, -1.49, -0.35, 2.44, 1.65, 8.05, repro,
2008-11-15,1.89, -1.73, -6.74, 2.40, 1.62, 7.72, repro,
2008-11-16,1.52, -1.03, -5.95, 2.40, 1.60, 7.84, repro,
2008-11-17,2.63, -1.50, -8.39, 2.35, 1.57, 7.57, repro,
2008-11-18,3.70, -1.72, -11.82, 2.47, 1.68, 8.44, repro,
2008-11-19,2.56, -1.71, -16.24, 2.39, 1.60, 7.82, repro,
2008-11-20,3.84, -1.73, -7.89, 2.40, 1.61, 7.71, repro,
2008-11-21,3.64, -1.86, -5.43, 2.52, 1.72, 8.25, repro,
2008-11-22,1.11, -2.03, 3.91, 2.48, 1.68, 8.31, repro,
2008-11-23,1.71, -2.14, -1.16, 2.47, 1.64, 7.93, repro,
2008-11-24,0.73, 0.11, 5.05, 2.39, 1.60, 7.87, repro,
2008-11-25,2.14, -2.09, 3.81, 2.39, 1.61, 7.84, repro,
2008-11-26,2.73, -1.76, -0.11, 2.33, 1.54, 7.40, repro,
2008-11-27,-0.41, -0.48, -5.76, 2.51, 1.67, 8.09, repro,
2008-11-28,1.01, 0.30, 1.57, 2.43, 1.62, 7.89, repro,
2008-11-29,1.69, -0.71, -0.70, 2.44, 1.65, 8.07, repro,
2008-11-30,1.11, -0.44, -2.47, 2.35, 1.55, 7.45, repro,
2008-12-01,2.53, -0.77, -11.14, 2.32, 1.53, 7.27, repro,
2008-12-02,3.32, -1.14, -7.80, 2.34, 1.56, 7.54, repro,
2008-12-03,2.48, -0.78, -5.15, 2.34, 1.56, 7.48, repro,
2008-12-04,4.31, -0.33, -2.27, 2.54, 1.68, 8.22, repro,
2008-12-05,2.53, -0.83, -0.45, 2.34, 1.56, 7.47, repro,
2008-12-06,0.84, -1.22, -3.65, 2.58, 1.72, 8.25, repro,
2008-12-07,1.70, -1.60, 0.96, 2.45, 1.66, 8.06, repro,
2008-12-08,1.27, -0.47, -4.01, 2.40, 1.63, 7.91, repro,
2008-12-09,-1.28, -1.63, 2.36, 2.38, 1.56, 7.37, repro,
2008-12-10,0.55, -2.66, -2.12, 2.39, 1.59, 7.58, repro,
2008-12-11,1.96, -1.60, -6.83, 2.34, 1.57, 7.62, repro,
2008-12-12,3.21, -1.57, -15.93, 2.48, 1.70, 8.36, repro,
2008-12-13,2.89, -0.11, -23.57, 2.35, 1.57, 7.63, repro,
2008-12-14,2.95, -1.19, -18.07, 2.29, 1.52, 7.19, repro,
2008-12-15,2.92, -1.25, -13.94, 2.29, 1.53, 7.24, repro,
2008-12-16,3.75, -0.05, -17.43, 2.28, 1.52, 7.22, repro,
2008-12-17,3.61, -0.45, -16.67, 2.30, 1.53, 7.36, repro,
2008-12-18,1.30, -1.94, -14.38, 2.29, 1.53, 7.26, repro,
2008-12-19,2.29, -1.92, -13.37, 2.35, 1.58, 7.37, repro,
2008-12-20,3.27, -1.32, -16.71, 2.36, 1.57, 7.42, repro,
2008-12-21,2.86, -1.17, -11.39, 2.28, 1.52, 7.24, repro,
2008-12-22,3.28, -1.54, -6.58, 2.27, 1.52, 7.18, repro,
2008-12-23,2.77, -1.72, -0.56, 2.28, 1.52, 7.22, repro,
2008-12-24,1.16, -2.41, 2.66, 2.29, 1.53, 7.26, repro,
2008-12-25,3.75, -1.67, 1.45, 2.29, 1.51, 7.23, repro,
2008-12-26,3.43, -0.95, 4.76, 2.29, 1.51, 7.21, repro,
2008-12-27,4.36, -1.91, 1.49, 2.29, 1.52, 7.22, repro,
2008-12-28,2.39, -1.83, -5.95, 2.28, 1.51, 7.22, repro,
2008-12-29,3.61, -1.76, -14.20, 2.30, 1.52, 7.30, repro,
2008-12-30,2.23, -2.22, -12.02, 2.29, 1.51, 7.22, repro,
2008-12-31,2.62, -2.03, -14.67, 2.31, 1.52, 7.25, repro,
2009-01-01,3.05, -1.55, -8.41, 2.30, 1.52, 7.27, repro,
2009-01-02,3.85, -1.33, -10.50, 2.28, 1.52, 7.28, repro,
2009-01-03,3.07, -1.35, -9.08, 2.29, 1.53, 7.32, repro,
2009-01-04,1.92, -2.02, -4.93, 2.31, 1.54, 7.40, repro,
2009-01-05,3.77, -2.19, -2.61, 2.38, 1.57, 7.48, repro,
2009-01-06,4.32, -1.85, -10.22, 2.40, 1.59, 7.59, repro,
2009-01-07,2.36, -1.58, -8.31, 2.28, 1.53, 7.25, repro,
2009-01-08,2.59, -2.25, -6.31, 2.33, 1.56, 7.35, repro,
2009-01-09,2.31, -1.80, -10.87, 2.34, 1.57, 7.39, repro,
2009-01-10,3.08, -2.11, -11.08, 2.33, 1.53, 7.40, repro,
2009-01-11,2.79, -1.30, -16.58, 2.42, 1.61, 7.74, repro,
2009-01-12,2.28, -1.64, -9.20, 2.37, 1.59, 7.88, repro,
2009-01-13,3.81, -1.65, -11.11, 2.35, 1.58, 7.84, repro,
2009-01-14,0.32, -1.55, 0.41, 2.34, 1.56, 7.54, repro,
2009-01-15,-1.15, 1.90, 14.56, 2.33, 1.55, 7.46, repro,
2009-01-16,-4.65, -1.88, -9.03, 2.33, 1.53, 7.32, repro,
2009-01-17,-1.27, -2.26, 0.04, 2.33, 1.54, 7.39, repro,
2009-01-18,-0.40, -1.74, -9.25, 2.34, 1.56, 7.53, repro,
2009-01-19,-3.43, -0.41, 4.14, 2.40, 1.64, 7.82, repro,
2009-01-20,3.39, -1.67, -18.83, 2.58, 1.81, 8.39, repro,
2009-01-21,3.08, -2.40, -16.90, 2.43, 1.62, 7.80, repro,
2009-01-22,3.87, -1.11, -16.10, 2.36, 1.56, 7.56, repro,
2009-01-23,4.27, -1.05, -15.15, 2.45, 1.66, 8.03, repro,
2009-01-24,4.55, -1.36, -10.60, 2.34, 1.56, 7.53, repro,
2009-01-25,3.26, -1.95, -12.87, 2.30, 1.53, 7.29, repro,
2009-01-26,3.38, -0.60, -13.19, 2.30, 1.52, 7.31, repro,
2009-01-27,3.15, -0.94, -5.95, 2.33, 1.54, 7.40, repro,
2009-01-28,3.31, -0.35, -9.49, 2.30, 1.52, 7.29, repro,
2009-01-29,4.74, -1.01, -1.52, 2.30, 1.53, 7.32, repro,
2009-01-30,2.25, -0.93, 1.27, 2.30, 1.53, 7.31, repro,
2009-01-31,2.53, -0.59, -1.79, 2.30, 1.53, 7.31, repro,
2009-02-01,2.96, 0.15, -13.02, 2.31, 1.52, 7.28, repro,
2009-02-02,2.22, -0.61, -6.65, 2.30, 1.52, 7.25, repro,
2009-02-03,2.46, -0.25, -9.57, 2.34, 1.55, 7.49, repro,
2009-02-04,3.82, -0.79, -3.99, 2.30, 1.53, 7.33, repro,
2009-02-05,2.13, -0.73, -2.97, 2.36, 1.55, 7.37, repro,
2009-02-06,1.80, 0.76, -7.32, 2.41, 1.60, 7.57, repro,
2009-02-07,2.99, -0.14, -7.89, 2.34, 1.54, 7.30, repro,
2009-02-08,2.39, 0.18, -7.16, 2.30, 1.52, 7.27, repro,
2009-02-09,2.73, -0.07, -9.09, 2.32, 1.54, 7.40, repro,
2009-02-10,1.59, -0.42, -7.19, 2.32, 1.53, 7.38, repro,
2009-02-11,1.32, -0.13, -10.64, 2.37, 1.56, 7.45, repro,
2009-02-12,1.23, 0.62, -14.00, 2.37, 1.56, 7.44, repro,
2009-02-13,2.87, 0.09, -15.06, 2.30, 1.51, 7.27, repro,
2009-02-14,3.54, 0.48, -14.82, 2.31, 1.52, 7.32, repro,
2009-02-15,0.30, 0.42, -6.11, 2.32, 1.53, 7.38, repro,
2009-02-16,4.48, 0.86, -3.40, 2.32, 1.53, 7.36, repro,
2009-02-17,2.40, 0.52, -5.70, 2.32, 1.54, 7.42, repro,
2009-02-18,1.37, 0.87, -13.15, 2.30, 1.52, 7.27, repro,
2009-02-19,0.73, 1.10, -18.36, 2.31, 1.52, 7.29, repro,
2009-02-20,1.73, 0.96, -16.49, 2.32, 1.52, 7.38, repro,
2009-02-21,2.21, 0.36, -19.46, 2.31, 1.53, 7.33, repro,
2009-02-22,3.08, 0.37, -17.31, 2.30, 1.53, 7.30, repro,
2009-02-23,1.90, 0.94, -14.55, 2.35, 1.56, 7.42, repro,
2009-02-24,1.64, -0.73, -9.86, 2.71, 2.01, 7.99, repro,
2009-02-25,0.29, -2.24, -21.52, 325.94, 385.37, 633.76, repro,
2009-02-26,1.33, -0.57, -7.56, 2.37, 1.55, 7.41, repro,
2009-02-27,3.13, -0.13, -20.92, 2.38, 1.57, 7.48, repro,
2009-02-28,1.67, -1.15, -19.30, 2.30, 1.54, 7.33, repro,
2009-03-01,1.78, 0.06, -18.59, 2.29, 1.53, 7.26, repro,
2009-03-02,2.95, 0.68, -15.78, 2.31, 1.53, 7.28, repro,
2009-03-03,1.76, -0.43, -10.17, 2.34, 1.57, 7.43, repro,
2009-03-04,0.67, -0.09, -15.48, 2.30, 1.53, 7.30, repro,
2009-03-05,2.53, 1.22, -17.28, 2.29, 1.53, 7.29, repro,
2009-03-06,0.85, 0.04, -10.53, 2.35, 1.57, 7.42, repro,
2009-03-07,1.44, 0.79, -22.22, 2.29, 1.52, 7.24, repro,
2009-03-08,2.65, 0.76, -27.10, 2.31, 1.54, 7.35, repro,
2009-03-09,1.49, -0.01, -23.07, 2.31, 1.52, 7.30, repro,
2009-03-10,0.79, 0.28, -18.79, 2.33, 1.57, 7.46, repro,
2009-03-11,1.58, -0.17, -16.19, 2.30, 1.53, 7.32, repro,
2009-03-12,1.19, -0.07, -16.83, 2.30, 1.53, 7.30, repro,
2009-03-13,0.10, 1.02, -13.77, 2.30, 1.51, 7.28, repro,
2009-03-14,0.56, 0.00, -10.00, 2.31, 1.53, 7.33, repro,
2009-03-15,1.49, 0.06, -11.18, 2.30, 1.53, 7.30, repro,
2009-03-16,1.12, -0.14, -11.03, 2.30, 1.53, 7.30, repro,
2009-03-17,-0.06, -0.97, -8.43, 2.29, 1.52, 7.27, repro,
2009-03-18,-0.12, 0.06, -15.27, 2.29, 1.52, 7.28, repro,
2009-03-19,1.21, -0.32, -16.13, 2.31, 1.52, 7.28, repro,
2009-03-20,1.51, 0.51, -16.14, 2.30, 1.52, 7.33, repro,
2009-03-21,1.57, -0.24, -13.81, 2.32, 1.52, 7.37, repro,
2009-03-22,1.40, 0.60, -13.35, 2.29, 1.53, 7.31, repro,
2009-03-23,-0.04, 1.24, -19.03, 2.30, 1.52, 7.33, repro,
2009-03-24,0.68, -0.14, -12.02, 2.30, 1.51, 7.27, repro,
2009-03-25,0.38, 1.06, -8.28, 2.29, 1.51, 7.27, repro,
2009-03-26,-0.11, 0.18, -4.95, 2.29, 1.51, 7.28, repro,
2009-03-27,1.23, -0.59, -7.29, 2.32, 1.53, 7.43, repro,
2009-03-28,-0.12, 0.20, -10.69, 2.31, 1.54, 7.48, repro,
2009-03-29,0.26, 0.09, -8.34, 2.32, 1.54, 7.41, repro,
2009-03-30,-1.51, 1.13, -4.87, 2.31, 1.53, 7.40, repro,
2009-03-31,-0.68, -0.13, -11.44, 2.32, 1.53, 7.42, repro,
2009-04-01,-0.13, -0.37, -11.38, 2.32, 1.53, 7.42, repro,
2009-04-02,-1.09, -0.08, -14.42, 2.39, 1.58, 7.51, repro,
2009-04-03,0.17, 0.27, -18.35, 2.39, 1.57, 7.47, repro,
2009-04-04,0.34, 0.67, -17.62, 2.32, 1.53, 7.35, repro,
2009-04-05,-0.09, -0.31, -19.86, 2.32, 1.54, 7.38, repro,
2009-04-06,0.34, -0.59, -17.49, 2.33, 1.54, 7.42, repro,
2009-04-07,1.05, 0.14, -17.50, 2.32, 1.53, 7.42, repro,
2009-04-08,1.07, 0.17, -14.67, 2.31, 1.54, 7.38, repro,
2009-04-09,-0.24, 0.35, -11.06, 2.32, 1.53, 7.39, repro,
2009-04-10,-1.10, 2.44, -11.81, 2.30, 1.52, 7.35, repro,
2009-04-11,-0.64, 0.25, -7.48, 2.33, 1.53, 7.41, repro,
2009-04-12,-1.57, -0.69, -7.78, 2.33, 1.54, 7.39, repro,
2009-04-13,-1.16, -0.25, -16.22, 2.32, 1.54, 7.41, repro,
2009-04-14,0.59, 0.25, -13.02, 2.32, 1.53, 7.41, repro,
2009-04-15,-0.29, 0.63, -17.03, 2.33, 1.54, 7.41, repro,
2009-04-16,-0.93, 0.02, -13.27, 2.33, 1.55, 7.42, repro,
2009-04-17,0.32, -0.61, -13.12, 2.32, 1.54, 7.41, repro,
2009-04-18,-0.09, -0.53, -15.05, 2.31, 1.54, 7.38, repro,
2009-04-19,0.53, 0.76, -19.77, 2.31, 1.53, 7.38, repro,
2009-04-20,0.43, 0.57, -20.47, 2.31, 1.52, 7.37, repro,
2009-04-21,0.79, 0.28, -19.43, 2.33, 1.52, 7.43, repro,
2009-04-22,-0.09, 0.37, -17.22, 2.32, 1.53, 7.39, repro,
2009-04-23,1.24, 0.56, -20.25, 2.31, 1.53, 7.39, repro,
2009-04-24,1.13, 0.75, -18.00, 2.34, 1.57, 7.51, repro,
2009-04-25,0.59, -0.48, -18.99, 2.31, 1.53, 7.38, repro,
2009-04-26,1.35, 1.11, -25.46, 2.31, 1.52, 7.37, repro,
2009-04-27,1.05, 0.62, -24.87, 2.31, 1.53, 7.40, repro,
2009-04-28,1.57, -0.14, -24.21, 2.31, 1.53, 7.39, repro,
2009-04-29,2.54, 0.02, -24.96, 2.34, 1.58, 7.45, repro,
2009-04-30,-0.44, 1.46, -23.37, 2.34, 1.58, 7.46, repro,
2009-05-01,2.51, 1.08, -21.87, 2.30, 1.51, 7.32, repro,
2009-05-02,1.98, 1.29, -20.65, 2.31, 1.52, 7.33, repro,
2009-05-03,1.23, 0.37, -12.69, 2.30, 1.53, 7.35, repro,
2009-05-04,1.60, 0.61, -8.53, 2.29, 1.53, 7.29, repro,
2009-05-05,0.50, 0.62, -11.56, 2.30, 1.53, 7.36, repro,
2009-05-06,0.13, 0.41, -10.27, 2.29, 1.53, 7.34, repro,
2009-05-07,1.56, 1.32, -13.72, 2.31, 1.53, 7.37, repro,
2009-05-08,2.29, 0.87, -19.14, 2.38, 1.56, 7.52, repro,
2009-05-09,1.76, -0.19, -25.49, 2.30, 1.53, 7.35, repro,
2009-05-10,1.36, 1.19, -21.96, 2.27, 1.53, 7.29, repro,
2009-05-11,1.80, 1.60, -20.36, 2.29, 1.53, 7.38, repro,
2009-05-12,2.22, 1.15, -15.35, 2.34, 1.55, 7.52, repro,
2009-05-13,1.12, 1.05, -17.39, 2.30, 1.52, 7.36, repro,
2009-05-14,1.10, 0.29, -12.00, 2.32, 1.53, 7.41, repro,
2009-05-15,2.01, 0.85, -14.00, 2.29, 1.53, 7.33, repro,
2009-05-16,0.42, 1.11, -18.46, 2.27, 1.54, 7.30, repro,
2009-05-17,2.23, 2.23, -18.72, 2.29, 1.53, 7.38, repro,
2009-05-18,1.23, 1.38, -13.29, 2.29, 1.52, 7.34, repro,
2009-05-19,0.92, 1.41, -14.09, 2.39, 1.56, 7.57, repro,
2009-05-20,0.12, 0.02, -11.06, 2.31, 1.53, 7.40, repro,
2009-05-21,0.26, 0.71, -11.60, 2.28, 1.52, 7.38, repro,
2009-05-22,0.15, 0.20, -13.68, 2.28, 1.53, 7.34, repro,
2009-05-23,0.96, 0.71, -16.69, 2.27, 1.52, 7.32, repro,
2009-05-24,0.39, 0.82, -13.14, 2.30, 1.53, 7.38, repro,
2009-05-25,1.23, 0.92, -15.51, 2.31, 1.53, 7.41, repro,
2009-05-26,0.87, 1.74, -16.04, 2.29, 1.52, 7.32, repro,
2009-05-27,1.72, 0.81, -17.47, 2.27, 1.52, 7.31, repro,
2009-05-28,0.90, 0.76, -6.26, 2.28, 1.52, 7.38, repro,
2009-05-29,0.82, 0.95, -9.77, 2.27, 1.52, 7.32, repro,
2009-05-30,0.77, 1.20, -10.77, 2.30, 1.52, 7.42, repro,
2009-05-31,1.24, 1.30, -14.97, 2.30, 1.53, 7.39, repro,
2009-06-01,1.11, 1.93, -13.37, 2.28, 1.53, 7.33, repro,
2009-06-02,1.14, 2.01, -16.80, 2.28, 1.53, 7.36, repro,
2009-06-03,1.86, 2.09, -16.76, 2.27, 1.53, 7.37, repro,
2009-06-04,1.69, 1.01, -12.96, 2.27, 1.52, 7.30, repro,
2009-06-05,0.86, 1.60, -9.46, 2.31, 1.52, 7.41, repro,
2009-06-06,0.85, 0.80, -12.18, 2.34, 1.56, 7.57, repro,
2009-06-07,0.71, 0.92, -9.60, 2.28, 1.53, 7.36, repro,
2009-06-08,1.12, 0.90, -9.41, 2.29, 1.54, 7.41, repro,
2009-06-09,0.14, 0.25, -9.16, 2.27, 1.52, 7.32, repro,
2009-06-10,2.17, 0.97, -11.72, 2.29, 1.52, 7.39, repro,
2009-06-11,0.64, 1.19, -11.79, 2.30, 1.52, 7.41, repro,
2009-06-12,0.30, 0.94, -10.75, 2.29, 1.52, 7.38, repro,
2009-06-13,0.49, 1.02, -6.21, 2.28, 1.52, 7.36, repro,
2009-06-14,0.63, 0.30, -6.89, 2.34, 1.58, 7.57, repro,
2009-06-15,2.22, 0.81, -5.83, 2.28, 1.52, 7.36, repro,
2009-06-16,1.50, 0.76, -3.02, 2.31, 1.52, 7.43, repro,
2009-06-17,0.62, 0.39, -4.02, 2.30, 1.52, 7.42, repro,
2009-06-18,0.27, 1.09, -4.72, 2.28, 1.52, 7.37, repro,
2009-06-19,1.57, 0.49, -4.97, 2.28, 1.52, 7.36, repro,
2009-06-20,0.12, 0.57, -3.42, 2.28, 1.52, 7.32, repro,
2009-06-21,1.66, 1.67, -1.54, 2.30, 1.52, 7.42, repro,
2009-06-22,1.69, 0.14, 5.87, 2.30, 1.52, 7.41, repro,
2009-06-23,0.82, 0.47, -12.47, 2.28, 1.51, 7.37, repro,
2009-06-24,0.15, 0.85, -10.30, 2.28, 1.51, 7.37, repro,
2009-06-25,1.67, 1.42, -5.48, 2.27, 1.52, 7.35, repro,
2009-06-26,1.10, -0.18, -6.15, 2.33, 1.53, 7.47, repro,
2009-06-27,1.10, 1.04, -7.72, 2.35, 1.55, 7.60, repro,
2009-06-28,1.88, 1.14, -11.15, 2.34, 1.54, 7.54, repro,
2009-06-29,-0.37, 0.78, -8.26, 2.34, 1.54, 7.56, repro,
2009-06-30,0.89, 1.09, -12.82, 2.35, 1.54, 7.56, repro,
2009-07-01,1.47, 1.42, -13.66, 2.33, 1.54, 7.48, repro,
2009-07-02,1.48, 0.96, -10.43, 2.29, 1.52, 7.38, repro,
2009-07-03,0.93, 0.70, -6.24, 2.30, 1.52, 7.43, repro,
2009-07-04,0.98, 0.79, -7.25, 2.29, 1.52, 7.41, repro,
2009-07-05,2.15, 0.72, -10.48, 2.29, 1.51, 7.40, repro,
2009-07-06,1.98, 1.33, -2.83, 2.27, 1.51, 7.34, repro,
2009-07-07,1.56, 2.38, -10.76, 2.28, 1.51, 7.32, repro,
2009-07-08,1.66, 0.20, -2.94, 2.31, 1.53, 7.44, repro,
2009-07-09,0.37, -0.44, -4.85, 2.30, 1.52, 7.43, repro,
2009-07-10,2.04, 0.78, -9.10, 2.28, 1.52, 7.42, repro,
2009-07-11,2.67, 0.51, -6.58, 2.31, 1.54, 7.54, repro,
2009-07-12,1.37, 0.91, -10.77, 2.27, 1.51, 7.36, repro,
2009-07-13,2.72, 1.67, -4.77, 2.28, 1.52, 7.35, repro,
2009-07-14,3.00, 1.18, 2.67, 2.30, 1.52, 7.41, repro,
2009-07-15,3.40, 0.83, -6.23, 2.29, 1.52, 7.42, repro,
2009-07-16,2.31, 0.32, -4.92, 2.28, 1.52, 7.38, repro,
2009-07-17,2.01, 0.68, -3.20, 2.28, 1.51, 7.37, repro,
2009-07-18,2.35, 1.03, 5.04, 2.28, 1.51, 7.36, repro,
2009-07-19,2.93, 0.11, -0.37, 2.29, 1.51, 7.38, repro,
2009-07-20,2.06, 0.30, -1.48, 2.30, 1.52, 7.41, repro,
2009-07-21,4.74, 0.57, 4.56, 2.29, 1.52, 7.39, repro,
2009-07-22,1.98, 0.45, 12.73, 2.63, 1.71, 8.21, repro,
2009-07-23,3.87, 0.95, 5.89, 2.30, 1.53, 7.45, repro,
2009-07-24,2.61, -0.05, 5.52, 2.33, 1.56, 7.67, repro,
2009-07-25,2.03, -0.27, 1.80, 2.37, 1.55, 7.54, repro,
2009-07-26,7.36, 0.44, -4.52, 2.39, 1.57, 7.61, repro,
2009-07-27,6.54, 0.74, 2.68, 2.32, 1.54, 7.54, repro,
2009-07-28,4.64, -2.28, 3.56, 2.32, 1.53, 7.48, repro,
2009-07-29,-0.49, -1.92, 8.55, 2.40, 1.60, 7.69, repro,
2009-07-30,2.86, 0.12, 1.83, 2.36, 1.55, 7.77, repro,
2009-07-31,-3.71, -0.83, 4.91, 2.34, 1.54, 7.57, repro,
2009-08-01,1.99, -0.35, -1.43, 2.29, 1.52, 7.42, repro,
2009-08-02,1.02, -0.04, -2.14, 2.31, 1.52, 7.44, repro,
2009-08-03,2.92, 0.57, -4.09, 2.29, 1.52, 7.45, repro,
2009-08-04,2.61, -0.63, -0.30, 2.32, 1.55, 7.62, repro,
2009-08-05,1.63, 0.25, -1.66, 2.37, 1.58, 7.83, repro,
2009-08-06,2.00, -0.23, 0.82, 2.33, 1.53, 7.46, repro,
2009-08-07,0.92, -0.17, -0.06, 2.29, 1.53, 7.39, repro,
2009-08-08,0.77, 0.23, -4.55, 2.30, 1.53, 7.45, repro,
2009-08-09,1.38, -0.96, 2.31, 2.29, 1.52, 7.40, repro,
2009-08-10,2.66, -0.82, 1.54, 2.29, 1.52, 7.38, repro,
2009-08-11,0.17, -0.20, 1.38, 2.30, 1.52, 7.43, repro,
2009-08-12,1.15, -0.96, 1.18, 2.29, 1.52, 7.41, repro,
2009-08-13,0.23, -0.83, -1.60, 2.30, 1.53, 7.41, repro,
2009-08-14,1.49, 0.57, 7.96, 2.31, 1.52, 7.40, repro,
2009-08-15,3.11, -0.12, 13.47, 2.28, 1.52, 7.34, repro,
2009-08-16,0.85, -1.56, 8.44, 2.32, 1.52, 7.44, repro,
2009-08-17,0.19, 0.19, 3.35, 2.32, 1.53, 7.49, repro,
2009-08-18,0.13, -0.73, 1.73, 2.30, 1.53, 7.48, repro,
2009-08-19,0.91, 0.16, -0.46, 2.31, 1.53, 7.48, repro,
2009-08-20,1.73, -0.45, -1.70, 2.28, 1.52, 7.35, repro,
2009-08-21,1.14, -1.64, 2.06, 2.35, 1.54, 7.54, repro,
2009-08-22,1.11, -1.07, 0.31, 2.37, 1.55, 7.62, repro,
2009-08-23,0.91, -1.18, 4.33, 2.38, 1.56, 7.67, repro,
2009-08-24,0.32, -1.20, 8.38, 2.36, 1.56, 7.63, repro,
2009-08-25,1.38, -1.02, 7.57, 2.35, 1.55, 7.54, repro,
2009-08-26,1.24, -1.03, 4.23, 2.34, 1.54, 7.51, repro,
2009-08-27,1.52, -0.51, -1.44, 2.36, 1.54, 7.59, repro,
2009-08-28,1.86, -1.27, 4.53, 2.30, 1.52, 7.49, repro,
2009-08-29,2.47, -1.63, 10.08, 2.31, 1.53, 7.56, repro,
2009-08-30,2.47, -0.71, -0.78, 2.30, 1.53, 7.53, repro,
2009-08-31,1.38, -1.48, 4.40, 2.30, 1.51, 7.43, repro,
2009-09-01,1.82, -2.71, 3.77, 2.30, 1.49, 7.45, repro,
2009-09-02,3.12, -0.19, 4.12, 2.54, 1.69, 8.69, repro,
2009-09-03,3.16, -0.41, 4.93, 2.37, 1.55, 7.73, repro,
2009-09-04,2.51, -0.78, 1.94, 2.33, 1.54, 7.60, repro,
2009-09-05,2.01, -0.61, 0.01, 2.36, 1.55, 7.59, repro,
2009-09-06,0.79, -0.21, 3.31, 2.41, 1.57, 7.68, repro,
2009-09-07,1.92, -0.87, 3.03, 2.32, 1.52, 7.50, repro,
2009-09-08,1.15, -0.51, 7.48, 2.32, 1.52, 7.51, repro,
2009-09-09,0.69, -0.13, 9.78, 2.32, 1.52, 7.54, repro,
2009-09-10,1.95, -0.15, 5.77, 2.31, 1.52, 7.52, repro,
2009-09-11,0.65, -0.24, 12.08, 2.31, 1.51, 7.46, repro,
2009-09-12,1.03, -0.67, 11.46, 2.31, 1.49, 7.41, repro,
2009-09-13,2.62, -0.75, 11.64, 2.38, 1.54, 7.65, repro,
2009-09-14,2.43, -0.79, 10.20, 2.31, 1.52, 7.51, repro,
2009-09-15,2.13, -0.85, 2.43, 2.31, 1.53, 7.52, repro,
2009-09-16,2.82, -0.81, 3.74, 2.30, 1.51, 7.44, repro,
2009-09-17,1.57, -1.96, 15.52, 2.31, 1.51, 7.46, repro,
2009-09-18,1.72, -0.56, 9.04, 2.34, 1.54, 7.71, repro,
2009-09-19,2.51, -1.10, 6.78, 2.33, 1.53, 7.51, repro,
2009-09-20,2.85, -1.10, 11.91, 2.31, 1.53, 7.55, repro,
2009-09-21,-0.02, -0.54, 9.04, 2.29, 1.52, 7.45, repro,
2009-09-22,0.62, -1.58, 10.73, 2.34, 1.56, 7.61, repro,
2009-09-23,1.56, -1.49, 8.31, 2.39, 1.59, 7.83, repro,
2009-09-24,2.37, -1.11, 12.17, 2.30, 1.51, 7.48, repro,
2009-09-25,1.07, -0.70, 14.69, 3.08, 2.01, 9.55, repro,
2009-09-26,1.39, -0.22, 6.83, 2.29, 1.51, 7.45, repro,
2009-09-27,1.75, -0.53, 6.02, 2.29, 1.52, 7.48, repro,
2009-09-28,2.60, -1.16, 1.62, 2.34, 1.55, 7.62, repro,
2009-09-29,1.55, -0.07, 2.26, 2.34, 1.57, 7.64, repro,
2009-09-30,2.61, -0.29, 4.09, 2.31, 1.52, 7.48, repro,
2009-10-01,2.64, -0.47, 3.80, 2.29, 1.52, 7.48, repro,